SL-12 DEB, 44982

Orbit data source: Space-Track

SL-12 DEB, 44982 is space debris in HEO originally from a launch on Mon, 25 Dec 2006 UTC launched from the Tyuratam Missile And Space Complex (TTMTR). Debris objects in space refer to the collection of defunct objects orbiting the Earth. Examples of debris include non-operational satellites, rocket bodies, and fragments generated from explosions, collisions, or faulty payload assembly.

Loading next visibility...
Identifier
44982, 2006-062S
Orbit
HEO
Country
Flag of CISCIS
Related business
Manufacturer
RKKE
Mission
Spacecraft
Bus & Motor
Unknown
Mass
Unknown
Launch date (UTC)
2006-12-25 (19 years ago)
Launch vehicle
Unknown
Launch site
Tyuratam Missile And Space Complex (TTMTR)
Object type
Payload
Rocket body
Debris
Shape & HBR
Unknown shape, 0.6 m
Radar Cross Section
Medium (>0.1 m² and <1 m²)

Expand to show TLE details & history
Last TLE update: 1 day ago

TLE from 1 day ago
0 SL-12 DEB
1 44982U 06062S   26129.09720936 -.00000146  00000-0 -11999-2 0  9991
2 44982  65.0215  16.3454 5566998 270.9747  29.1725  4.28228131101880
Epoch: 2026-05-09T02:19Z
TLE epoch observation values (Epoch: 2026-05-09T02:19:58.888Z)
Latitude
Longitude
114.44603°
Altitude
4,590.235 km
Speed
6.914 km/s
True Right ascension
01h 05m 26s
True Declination
0° 00' 00"
Sunlit
Object was in daylight at epoch
Visualization orbit readout
Latitude
Unknown
Longitude
Unknown
Altitude
Unknown
Speed
Unknown
Apparent Right ascension
Unknown
Apparent Declination
Unknown
Sunlit
N/A
Visualization observer readout
Local Sidereal Time
20:58:51
Azimuth
Unknown
Elevation
Unknown
Doppler factor
Unknown
Orbital elements
Apogee altitude
18,555.939 km
Perigee altitude
722.321 km
Semi-major axis
16,017.267 km
Eccentricity
0.5567
Inclination
65.0215°
RAAN
16.3454°
Arg. of periapsis
270.9747°
True anomaly
89.11551°
Mean anomaly
29.1725°
Eccentric anomaly
55.44051°
Mean motion
1.07068 °/min
Orbital period
336.23 mins
BSTAR
-0.0011999
Loading maneuver chart data...
Computing Atmospheric mass density...
Loading historical data...
Loading historical data...
Loading historical data...
Loading historical data...
Loading historical data...
Loading historical data...
Loading historical data...

Documentation

Showing up to 5 results
|